Time,TemperatureF,DewpointF,PressureIn,WindDirection,WindDirectionDegrees,WindSpeedMPH,WindSpeedGustMPH,Humidity,HourlyPrecipIn,Conditions,Clouds,dailyrainin,SoftwareType,DateUTC
2013-02-16 00:11:00,18.0,14.0,-100.00,SSW,210,0.0,1.0,85,-99.99,,,-99.99,,2013-02-16 07:11:00,
2013-02-16 00:21:00,18.0,14.0,-100.00,SSW,210,0.0,1.0,85,-99.99,,,-99.99,,2013-02-16 07:21:00,
2013-02-16 00:31:00,18.0,14.0,-100.00,SSW,210,0.0,1.0,85,-99.99,,,-99.99,,2013-02-16 07:31:00,
2013-02-16 01:01:00,13.0,11.0,-100.00,SSW,200,3.0,5.0,89,-99.99,,,0.00,,2013-02-16 08:01:00,
2013-02-16 01:11:00,16.0,14.0,-100.00,NE,40,3.0,4.0,89,-99.99,,,0.00,,2013-02-16 08:11:00,
2013-02-16 01:21:00,16.0,14.0,-100.00,NE,40,3.0,4.0,89,-99.99,,,0.00,,2013-02-16 08:21:00,
2013-02-16 01:31:00,13.0,11.0,-100.00,SSW,200,3.0,5.0,89,-99.99,,,0.00,,2013-02-16 08:31:00,
2013-02-16 01:41:00,13.0,11.0,-100.00,SSW,200,3.0,5.0,89,-99.99,,,0.00,,2013-02-16 08:41:00,
2013-02-16 01:52:00,13.0,11.0,-100.00,SSW,200,3.0,5.0,89,-99.99,,,0.00,,2013-02-16 08:52:00,
2013-02-16 02:11:00,11.0,8.0,-100.00,SSW,195,0.0,6.0,87,-99.99,,,0.00,,2013-02-16 09:11:00,
2013-02-16 02:21:00,11.0,8.0,-100.00,SSW,195,0.0,6.0,87,-99.99,,,0.00,,2013-02-16 09:21:00,
2013-02-16 03:11:00,14.0,11.0,-100.00,NNE,15,1.0,6.0,89,-99.99,,,0.00,,2013-02-16 10:11:00,
2013-02-16 03:21:00,14.0,11.0,-100.00,NNE,15,1.0,6.0,89,-99.99,,,0.00,,2013-02-16 10:21:00,
2013-02-16 03:31:00,14.0,11.0,-100.00,NNE,15,1.0,6.0,89,-99.99,,,0.00,,2013-02-16 10:31:00,
2013-02-16 04:01:00,9.0,6.0,-100.00,NE,35,1.0,2.0,87,-99.99,,,0.00,,2013-02-16 11:01:00,
2013-02-16 04:11:00,12.0,9.0,-100.00,NE,55,0.0,1.0,89,-99.99,,,-99.99,,2013-02-16 11:11:00,
2013-02-16 04:22:00,12.0,9.0,-100.00,NE,55,0.0,1.0,89,-99.99,,,-99.99,,2013-02-16 11:22:00,
2013-02-16 04:31:00,9.0,6.0,-100.00,NE,35,1.0,2.0,87,-99.99,,,0.00,,2013-02-16 11:31:00,
2013-02-16 04:42:00,9.0,6.0,-100.00,NE,35,1.0,2.0,87,-99.99,,,0.00,,2013-02-16 11:42:00,
2013-02-16 04:52:00,9.0,6.0,-100.00,NE,35,1.0,2.0,87,-99.99,,,0.00,,2013-02-16 11:52:00,
2013-02-16 05:01:00,8.0,5.0,-100.00,NNE,25,2.0,4.0,86,-99.99,,,0.00,,2013-02-16 12:01:00,
2013-02-16 05:12:00,8.0,5.0,-100.00,SSW,200,3.0,9.0,86,-99.99,,,0.00,,2013-02-16 12:12:00,
2013-02-16 05:22:00,8.0,5.0,-100.00,SSW,200,3.0,9.0,86,-99.99,,,0.00,,2013-02-16 12:22:00,
2013-02-16 05:32:00,8.0,5.0,-100.00,NNE,25,2.0,4.0,86,-99.99,,,0.00,,2013-02-16 12:32:00,
2013-02-16 05:42:00,8.0,5.0,-100.00,NNE,25,2.0,4.0,86,-99.99,,,0.00,,2013-02-16 12:42:00,
2013-02-16 05:52:00,8.0,5.0,-100.00,NNE,25,2.0,4.0,86,-99.99,,,0.00,,2013-02-16 12:52:00,
2013-02-16 06:11:00,6.0,3.0,-100.00,NNE,15,0.0,4.0,85,-99.99,,,0.00,,2013-02-16 13:11:00,
2013-02-16 06:21:00,6.0,3.0,-100.00,NNE,15,0.0,4.0,85,-99.99,,,0.00,,2013-02-16 13:21:00,
2013-02-16 07:01:00,11.0,9.0,-100.00,NNE,30,3.0,7.0,89,-99.99,,,0.00,,2013-02-16 14:01:00,
2013-02-16 07:11:00,6.0,3.0,-100.00,NNE,25,0.0,1.0,85,-99.99,,,0.00,,2013-02-16 14:11:00,
2013-02-16 07:32:00,11.0,9.0,-100.00,NNE,30,3.0,7.0,89,-99.99,,,0.00,,2013-02-16 14:32:00,
2013-02-16 07:41:00,11.0,9.0,-100.00,NNE,30,3.0,7.0,89,-99.99,,,0.00,,2013-02-16 14:41:00,
2013-02-16 07:52:00,11.0,9.0,-100.00,NNE,30,3.0,7.0,89,-99.99,,,0.00,,2013-02-16 14:52:00,
2013-02-16 08:00:00,10.0,7.0,-100.00,ENE,70,3.0,4.0,87,-99.99,,,0.00,,2013-02-16 15:00:00,
2013-02-16 08:11:00,13.0,11.0,-100.00,NE,40,1.0,6.0,90,-99.99,,,0.00,,2013-02-16 15:11:00,
2013-02-16 08:21:00,13.0,11.0,-100.00,NE,40,1.0,6.0,90,-99.99,,,0.00,,2013-02-16 15:21:00,
2013-02-16 08:31:00,10.0,7.0,-100.00,ENE,70,3.0,4.0,87,-99.99,,,0.00,,2013-02-16 15:31:00,
2013-02-16 08:41:00,10.0,7.0,-100.00,ENE,70,3.0,4.0,87,-99.99,,,0.00,,2013-02-16 15:41:00,
2013-02-16 08:51:00,10.0,7.0,-100.00,ENE,70,3.0,4.0,87,-99.99,,,0.00,,2013-02-16 15:51:00,
2013-02-16 09:00:00,16.0,13.0,-100.00,East,80,3.0,6.0,87,-99.99,,,0.00,,2013-02-16 16:00:00,
2013-02-16 09:11:00,20.0,18.0,-100.00,NE,45,8.0,11.0,91,-99.99,,,0.00,,2013-02-16 16:11:00,
2013-02-16 09:21:00,20.0,18.0,-100.00,NE,45,8.0,11.0,91,-99.99,,,0.00,,2013-02-16 16:21:00,
2013-02-16 09:32:00,16.0,13.0,-100.00,East,80,3.0,6.0,87,-99.99,,,0.00,,2013-02-16 16:32:00,
2013-02-16 09:41:00,16.0,13.0,-100.00,East,80,3.0,6.0,87,-99.99,,,0.00,,2013-02-16 16:41:00,
2013-02-16 09:51:00,16.0,13.0,-100.00,East,80,3.0,6.0,87,-99.99,,,0.00,,2013-02-16 16:51:00,
2013-02-16 10:01:00,32.0,21.0,-100.00,NE,45,1.0,2.0,63,-99.99,,,0.00,,2013-02-16 17:01:00,
2013-02-16 10:11:00,22.0,18.0,-100.00,NNE,20,3.0,6.0,85,-99.99,,,0.00,,2013-02-16 17:11:00,
2013-02-16 10:21:00,22.0,18.0,-100.00,NNE,20,3.0,6.0,85,-99.99,,,0.00,,2013-02-16 17:21:00,
2013-02-16 10:32:00,32.0,21.0,-100.00,NE,45,1.0,2.0,63,-99.99,,,0.00,,2013-02-16 17:32:00,
2013-02-16 10:41:00,32.0,21.0,-100.00,NE,45,1.0,2.0,63,-99.99,,,0.00,,2013-02-16 17:41:00,
2013-02-16 10:52:00,32.0,21.0,-100.00,NE,45,1.0,2.0,63,-99.99,,,0.00,,2013-02-16 17:52:00,
2013-02-16 11:11:00,33.0,22.0,-100.00,SW,235,13.0,17.0,62,-99.99,,,0.00,,2013-02-16 18:11:00,
2013-02-16 11:21:00,33.0,22.0,-100.00,SW,235,13.0,17.0,62,-99.99,,,0.00,,2013-02-16 18:21:00,
2013-02-16 11:33:00,35.0,22.0,-100.00,WSW,245,12.0,16.0,59,-99.99,,,0.00,,2013-02-16 18:33:00,
2013-02-16 11:42:00,35.0,22.0,-100.00,WSW,245,12.0,16.0,59,-99.99,,,0.00,,2013-02-16 18:42:00,
2013-02-16 11:51:00,35.0,22.0,-100.00,WSW,245,12.0,16.0,59,-99.99,,,0.00,,2013-02-16 18:51:00,
2013-02-16 12:02:00,35.0,22.0,-100.00,WSW,245,12.0,16.0,59,-99.99,,,0.00,,2013-02-16 19:02:00,
2013-02-16 13:11:00,38.0,24.0,-100.00,WSW,240,14.0,18.0,56,-99.99,,,0.00,,2013-02-16 20:11:00,
2013-02-16 13:21:00,38.0,24.0,-100.00,WSW,240,14.0,18.0,56,-99.99,,,0.00,,2013-02-16 20:21:00,
2013-02-16 13:32:00,38.0,24.0,-100.00,WSW,240,14.0,18.0,56,-99.99,,,0.00,,2013-02-16 20:32:00,
2013-02-16 14:01:00,37.0,25.0,-100.00,WSW,250,9.0,14.0,61,-99.99,,,0.00,,2013-02-16 21:01:00,
2013-02-16 14:11:00,38.0,24.0,-100.00,SSW,205,14.0,19.0,58,-99.99,,,0.00,,2013-02-16 21:11:00,
2013-02-16 14:21:00,38.0,24.0,-100.00,SSW,205,14.0,19.0,58,-99.99,,,0.00,,2013-02-16 21:21:00,
2013-02-16 14:31:00,37.0,25.0,-100.00,WSW,250,9.0,14.0,61,-99.99,,,0.00,,2013-02-16 21:31:00,
2013-02-16 14:41:00,37.0,25.0,-100.00,WSW,250,9.0,14.0,61,-99.99,,,0.00,,2013-02-16 21:41:00,
2013-02-16 14:52:00,37.0,25.0,-100.00,WSW,250,9.0,14.0,61,-99.99,,,0.00,,2013-02-16 21:52:00,
2013-02-16 15:00:00,42.0,25.0,-100.00,WSW,245,4.0,9.0,50,-99.99,,,0.00,,2013-02-16 22:00:00,
2013-02-16 15:11:00,42.0,24.0,-100.00,WNW,300,8.0,13.0,50,-99.99,,,0.00,,2013-02-16 22:11:00,
2013-02-16 15:21:00,42.0,24.0,-100.00,WNW,300,8.0,13.0,50,-99.99,,,0.00,,2013-02-16 22:21:00,
2013-02-16 15:32:00,42.0,25.0,-100.00,WSW,245,4.0,9.0,50,-99.99,,,0.00,,2013-02-16 22:32:00,
2013-02-16 15:42:00,42.0,25.0,-100.00,WSW,245,4.0,9.0,50,-99.99,,,0.00,,2013-02-16 22:42:00,
2013-02-16 15:51:00,42.0,25.0,-100.00,WSW,245,4.0,9.0,50,-99.99,,,0.00,,2013-02-16 22:51:00,
2013-02-16 16:01:00,39.0,24.0,-100.00,WSW,255,10.0,13.0,55,-99.99,,,0.00,,2013-02-16 23:01:00,
2013-02-16 16:11:00,40.0,24.0,-100.00,SW,230,12.0,17.0,52,-99.99,,,0.00,,2013-02-16 23:11:00,
2013-02-16 16:21:00,40.0,24.0,-100.00,SW,230,12.0,17.0,52,-99.99,,,0.00,,2013-02-16 23:21:00,
2013-02-16 16:31:00,39.0,24.0,-100.00,WSW,255,10.0,13.0,55,-99.99,,,0.00,,2013-02-16 23:31:00,
2013-02-16 16:42:00,39.0,24.0,-100.00,WSW,255,10.0,13.0,55,-99.99,,,0.00,,2013-02-16 23:42:00,
2013-02-16 16:52:00,39.0,24.0,-100.00,WSW,255,10.0,13.0,55,-99.99,,,0.00,,2013-02-16 23:52:00,
2013-02-16 17:01:00,38.0,23.0,-100.00,West,275,6.0,7.0,54,-99.99,,,0.00,,2013-02-17 00:01:00,
2013-02-16 17:12:00,37.0,25.0,-100.00,WSW,255,7.0,13.0,60,-99.99,,,0.00,,2013-02-17 00:12:00,
2013-02-16 17:21:00,37.0,25.0,-100.00,WSW,255,7.0,13.0,60,-99.99,,,0.00,,2013-02-17 00:21:00,
2013-02-16 17:31:00,38.0,23.0,-100.00,West,275,6.0,7.0,54,-99.99,,,0.00,,2013-02-17 00:31:00,
2013-02-16 17:41:00,38.0,23.0,-100.00,West,275,6.0,7.0,54,-99.99,,,0.00,,2013-02-17 00:41:00,
2013-02-16 17:51:00,38.0,23.0,-100.00,West,275,6.0,7.0,54,-99.99,,,0.00,,2013-02-17 00:51:00,
2013-02-16 18:01:00,37.0,23.0,-100.00,SE,140,1.0,4.0,56,-99.99,,,0.00,,2013-02-17 01:01:00,
2013-02-16 18:11:00,38.0,24.0,-100.00,SW,235,2.0,6.0,57,-99.99,,,0.00,,2013-02-17 01:11:00,
2013-02-16 18:21:00,38.0,24.0,-100.00,SW,235,2.0,6.0,57,-99.99,,,0.00,,2013-02-17 01:21:00,
2013-02-16 18:52:00,37.0,23.0,-100.00,SE,140,1.0,4.0,56,-99.99,,,0.00,,2013-02-17 01:52:00,
2013-02-16 19:01:00,31.0,23.0,-100.00,NE,45,2.0,2.0,70,-99.99,,,0.00,,2013-02-17 02:01:00,
2013-02-16 19:11:00,33.0,22.0,-100.00,NNE,30,1.0,1.0,64,-99.99,,,0.00,,2013-02-17 02:11:00,
2013-02-16 19:21:00,33.0,22.0,-100.00,NNE,30,1.0,1.0,64,-99.99,,,0.00,,2013-02-17 02:21:00,
2013-02-16 19:31:00,31.0,23.0,-100.00,NE,45,2.0,2.0,70,-99.99,,,0.00,,2013-02-17 02:31:00,
2013-02-16 19:41:00,31.0,23.0,-100.00,NE,45,2.0,2.0,70,-99.99,,,0.00,,2013-02-17 02:41:00,
2013-02-16 19:52:00,31.0,23.0,-100.00,NE,45,2.0,2.0,70,-99.99,,,0.00,,2013-02-17 02:52:00,
2013-02-16 20:11:00,32.0,20.0,-100.00,SW,215,0.0,1.0,63,-99.99,,,0.00,,2013-02-17 03:11:00,
2013-02-16 20:21:00,32.0,20.0,-100.00,SW,215,0.0,1.0,63,-99.99,,,0.00,,2013-02-17 03:21:00,
2013-02-16 20:31:00,27.0,18.0,-100.00,NE,45,1.0,1.0,68,-99.99,,,0.00,,2013-02-17 03:31:00,
2013-02-16 20:42:00,27.0,18.0,-100.00,NE,45,1.0,1.0,68,-99.99,,,0.00,,2013-02-17 03:42:00,
2013-02-16 20:51:00,27.0,18.0,-100.00,NE,45,1.0,1.0,68,-99.99,,,0.00,,2013-02-17 03:51:00,
2013-02-16 21:01:00,27.0,18.0,-100.00,NE,45,1.0,1.0,68,-99.99,,,0.00,,2013-02-17 04:01:00,
2013-02-16 21:11:00,27.0,19.0,-100.00,NNE,30,4.0,4.0,73,-99.99,,,0.00,,2013-02-17 04:11:00,
2013-02-16 21:21:00,27.0,19.0,-100.00,NNE,30,4.0,4.0,73,-99.99,,,0.00,,2013-02-17 04:21:00,
2013-02-16 21:31:00,27.0,18.0,-100.00,ESE,110,1.0,3.0,68,-99.99,,,0.00,,2013-02-17 04:31:00,
2013-02-16 21:42:00,27.0,18.0,-100.00,ESE,110,1.0,3.0,68,-99.99,,,0.00,,2013-02-17 04:42:00,
2013-02-16 21:51:00,27.0,18.0,-100.00,ESE,110,1.0,3.0,68,-99.99,,,0.00,,2013-02-17 04:51:00,
2013-02-16 22:01:00,27.0,18.0,-100.00,ESE,110,1.0,3.0,68,-99.99,,,0.00,,2013-02-17 05:01:00,
2013-02-16 22:02:00,29.0,25.0,-100.00,WNW,285,20.0,30.0,82,-99.99,,,0.00,,2013-02-17 05:02:00,
2013-02-16 22:12:00,26.0,17.0,-100.00,ENE,70,1.0,11.0,67,-99.99,,,0.00,,2013-02-17 05:12:00,
2013-02-16 22:22:00,26.0,17.0,-100.00,ENE,70,1.0,11.0,67,-99.99,,,0.00,,2013-02-17 05:22:00,
2013-02-16 22:32:00,29.0,25.0,-100.00,WNW,285,20.0,30.0,82,-99.99,,,0.00,,2013-02-17 05:32:00,
2013-02-16 22:42:00,29.0,25.0,-100.00,WNW,285,20.0,30.0,82,-99.99,,,0.00,,2013-02-17 05:42:00,
2013-02-16 22:52:00,29.0,25.0,-100.00,WNW,285,20.0,30.0,82,-99.99,,,0.00,,2013-02-17 05:52:00,
2013-02-16 23:01:00,26.0,24.0,-100.00,SSW,210,8.0,11.0,92,-99.99,,,0.00,,2013-02-17 06:01:00,
2013-02-16 23:11:00,26.0,24.0,-100.00,West,260,11.0,18.0,92,-99.99,,,0.00,,2013-02-17 06:11:00,
2013-02-16 23:21:00,26.0,24.0,-100.00,West,260,11.0,18.0,92,-99.99,,,0.00,,2013-02-17 06:21:00,
2013-02-16 23:31:00,26.0,24.0,-100.00,SSW,210,8.0,11.0,92,-99.99,,,0.00,,2013-02-17 06:31:00,
2013-02-16 23:41:00,26.0,24.0,-100.00,SSW,210,8.0,11.0,92,-99.99,,,0.00,,2013-02-17 06:41:00,
2013-02-16 23:51:00,26.0,24.0,-100.00,SSW,210,8.0,11.0,92,-99.99,,,0.00,,2013-02-17 06:51:00,